LiveATC.Net - Listen to live air traffic control over the Internet!


ICAO: KIKV  IATA: IKV   Airport: Ankeny Regional Airport
City: Ankeny   State/Province: Iowa
Country: United States   Continent: North America
KIKV METAR Weather: KIKV 181215Z AUTO 27003KT 10SM BKN055 OVC065 08/03 A3002 RMK AO2
KIKV Flight Activity (FlightAware)
KIKV Airport Info   (iFlightPlanner)
KIKV VFR Sectional Chart   (iFlightPlanner) 
KIKV IFR Low Chart   (iFlightPlanner) 

KIKV Del/CTAF
Feed Status: UP   Listeners: 0
Listen in your browser - HTML5 player (in browser, HTML5)
Click here to listen with your own player (launches your MP3 player)
Archive Access: KIKV Del/CTAF
FacilityFrequency
Ankeny Clearance Delivery (Des Moines via RCO)126.650
Ankeny CTAF122.900

NOTICE

Unauthorized use prohibited. See LiveATC.net Terms of Service


Airport/ARTCC Code
Frequency Search
(e.g., 124.400, 128.75)
Site-wide search
 


Browse Feeds
Top 50 Feeds
HF Oceanic Feeds
Coverage Map
Bad Weather Areas

LiveATC FAQ
Offer LiveATC feed
Contact LiveATC.net
Press Inquiries

LiveATC on iPhone
LiveATC on Android

Windows Phone
Windows 8/10

LiveATC Mobile
(Mobile browser)

ATC Audio Archives
Interesting Recordings

LiveATC Forums


Home Page
About LiveATC.net
Make a Donation
Terms of Use
Privacy Policy

Canadian Air Freqs

AIRMETs/SIGMETs

FAA Airport Status
Nat'l Airspace Status
Arrival Demand Charts


Server Software By:
Icecast.org
Liquidsoap